Weather History for Cody, WY

Change the Weather History Date:

Saturday, October 27, 2012

  Actual Average Record
Temperature  
Mean Temperature 36 °F -  
Max Temperature 46 °F 56 °F 75 °F (1983)
Min Temperature 26 °F 30 °F -4 °F (1919)
Degree Days  
Heating Degree Days 29    
Moisture  
Dew Point 20 °F    
Average Humidity 52    
Maximum Humidity 69    
Minimum Humidity 37    
Precipitation  
Precipitation 0.00 in - - ()
Sea Level Pressure  
Sea Level Pressure 30.02 in    
Wind  
Wind Speed 6 mph (WSW)    
Max Wind Speed 23 mph    
Max Gust Speed 31 mph    
Visibility 10 miles    
Events      
Averages and records for this station are not official NWS values.
T = Trace of Precipitation, MM = Missing Value Source: NWS Daily Summary

Daily Weather History Graph

Daily Weather History Graph

Search for Another Location

Airport:

Trip Planner

Search our weather history database for the weather conditions in past years. The results will help you decide how hot, cold, wet, or windy it might be!

Date:

Astronomy

Oct. 27, 2012 Rise Set
Actual Time 7:47 AM MDT 6:11 PM MDT
Civil Twilight 7:17 AM MDT 6:41 PM MDT
Nautical Twilight 6:43 AM MDT 7:15 PM MDT
Astronomical Twilight 6:09 AM MDT 7:49 PM MDT
Moon 5:01 PM MDT 5:42 AM MDT
Length of Visible Light 11h 23m
Length of Day
10h 23m
Waxing Gibbous, 96% of the Moon is Illuminated
Oct 27
Waxing Gibbous
Oct 29
Full
Nov 6
Last Quarter
Nov 13
New
Nov 20
First Quarter

Hourly Weather History & Observations

Time (MDT) Temp. Windchill Dew Point Humidity Pressure Visibility Wind Dir Wind Speed Gust Speed Precip Events Conditions
12:15 AM 30.2 °F - 15.8 °F 55% 30.07 in 10.0 mi Calm Calm - N/A   Overcast
12:35 AM 30.2 °F 26.7 °F 15.8 °F 55% 30.06 in 10.0 mi SE 3.5 mph - N/A   Overcast
12:55 AM 28.4 °F 19.1 °F 17.6 °F 64% 30.04 in 10.0 mi SE 10.4 mph - N/A   Overcast
1:15 AM 30.2 °F 25.4 °F 15.8 °F 55% 30.04 in 10.0 mi SSE 4.6 mph - N/A   Overcast
1:35 AM 28.4 °F 23.3 °F 15.8 °F 59% 30.04 in 10.0 mi South 4.6 mph - N/A   Overcast
1:55 AM 30.2 °F - 15.8 °F 55% 30.03 in 10.0 mi Calm Calm - N/A   Overcast
2:35 AM 30.2 °F - 15.8 °F 55% 30.03 in 10.0 mi Calm Calm - N/A   Overcast
2:55 AM 30.2 °F 26.7 °F 15.8 °F 55% 30.03 in 10.0 mi West 3.5 mph - N/A   Overcast
3:15 AM 30.2 °F 26.7 °F 15.8 °F 55% 30.03 in 10.0 mi SSE 3.5 mph - N/A   Overcast
3:35 AM 28.4 °F 24.6 °F 17.6 °F 64% 30.03 in 10.0 mi North 3.5 mph - N/A   Overcast
3:55 AM 28.4 °F - 17.6 °F 64% 30.02 in 10.0 mi Calm Calm - N/A   Overcast
4:15 AM 28.4 °F 22.2 °F 17.6 °F 64% 30.01 in 10.0 mi SSE 5.8 mph - N/A   Mostly Cloudy
4:35 AM 28.4 °F - 15.8 °F 59% 30.01 in 10.0 mi Calm Calm - N/A   Mostly Cloudy
4:55 AM 28.4 °F 23.3 °F 15.8 °F 59% 30.01 in 10.0 mi SSW 4.6 mph - N/A   Mostly Cloudy
5:15 AM 26.6 °F 19.1 °F 15.8 °F 64% 30.01 in 10.0 mi South 6.9 mph - N/A   Mostly Cloudy
5:55 AM 32.0 °F 24.8 °F 17.6 °F 55% 30.01 in 10.0 mi SE 8.1 mph 17.3 mph N/A   Overcast
6:15 AM 30.2 °F 22.6 °F 15.8 °F 55% 30.01 in 10.0 mi SSW 8.1 mph - N/A   Overcast
6:35 AM 33.8 °F 29.6 °F 17.6 °F 52% 30.01 in 10.0 mi NNW 4.6 mph - N/A   Overcast
6:55 AM 30.2 °F 26.7 °F 17.6 °F 60% 30.02 in 10.0 mi NNW 3.5 mph - N/A   Overcast
7:15 AM 30.2 °F 25.4 °F 17.6 °F 60% 30.03 in 10.0 mi SSW 4.6 mph - N/A   Overcast
7:35 AM 30.2 °F - 17.6 °F 60% 30.03 in 10.0 mi Calm Calm - N/A   Overcast
7:55 AM 30.2 °F 25.4 °F 17.6 °F 60% 30.04 in 10.0 mi NW 4.6 mph - N/A   Overcast
8:15 AM 28.4 °F 24.6 °F 19.4 °F 69% 30.04 in 10.0 mi North 3.5 mph - N/A   Overcast
8:35 AM 28.4 °F - 17.6 °F 64% 30.04 in 10.0 mi Calm Calm - N/A   Overcast
8:55 AM 30.2 °F - 19.4 °F 64% 30.05 in 10.0 mi Calm Calm - N/A   Mostly Cloudy
9:35 AM 30.2 °F 26.7 °F 17.6 °F 60% 30.05 in 10.0 mi ENE 3.5 mph - N/A   Overcast
9:55 AM 32.0 °F - 19.4 °F 60% 30.05 in 10.0 mi Calm Calm - N/A   Mostly Cloudy
10:15 AM 33.8 °F 30.8 °F 19.4 °F 56% 30.04 in 10.0 mi ESE 3.5 mph - N/A   Mostly Cloudy
10:35 AM 35.6 °F 28.6 °F 23.0 °F 60% 30.04 in 10.0 mi ESE 9.2 mph - N/A   Scattered Clouds
10:55 AM 39.2 °F 32.0 °F 21.2 °F 49% 30.03 in 10.0 mi SSE 11.5 mph - N/A   Mostly Cloudy
11:15 AM 41.0 °F 33.1 °F 19.4 °F 42% 30.02 in 10.0 mi SE 15.0 mph 18.4 mph N/A   Mostly Cloudy
11:35 AM - - - N/A% 30.01 in 10.0 mi SE 16.1 mph 20.7 mph N/A   Scattered Clouds
11:55 AM - - - N/A% 30.01 in 10.0 mi South 12.7 mph 21.9 mph N/A   Mostly Cloudy
12:35 PM - - - N/A% 29.99 in 10.0 mi West 12.7 mph 25.3 mph N/A   Scattered Clouds
12:55 PM - - - N/A% 29.99 in 10.0 mi West 16.1 mph 23.0 mph N/A   Scattered Clouds
1:15 PM - - - N/A% 29.98 in 10.0 mi West 18.4 mph 31.1 mph N/A   Partly Cloudy
1:35 PM - - - N/A% 29.97 in 10.0 mi West 16.1 mph 28.8 mph N/A   Clear
1:55 PM - - - N/A% 29.97 in 10.0 mi West 15.0 mph 25.3 mph N/A   Clear
2:15 PM - - - N/A% 29.97 in 10.0 mi WSW 15.0 mph 25.3 mph N/A   Clear
2:35 PM 46.4 °F 39.2 °F 21.2 °F 37% 29.98 in 10.0 mi WSW 18.4 mph 27.6 mph N/A   Mostly Cloudy
2:55 PM 46.4 °F 38.3 °F 21.2 °F 37% 29.98 in 10.0 mi WSW 23.0 mph 29.9 mph N/A   Mostly Cloudy
3:15 PM 46.4 °F 39.8 °F 21.2 °F 37% 29.98 in 10.0 mi West 16.1 mph 26.5 mph N/A   Mostly Cloudy
3:35 PM 46.4 °F 39.2 °F 21.2 °F 37% 29.99 in 10.0 mi West 18.4 mph 27.6 mph N/A   Scattered Clouds
3:55 PM 46.4 °F 38.7 °F 21.2 °F 37% 29.99 in 10.0 mi West 20.7 mph 29.9 mph N/A   Scattered Clouds
4:15 PM 46.4 °F 39.5 °F 21.2 °F 37% 29.99 in 10.0 mi West 17.3 mph 28.8 mph N/A   Partly Cloudy
4:35 PM 44.6 °F 36.1 °F 21.2 °F 39% 30.00 in 10.0 mi West 21.9 mph 28.8 mph N/A   Partly Cloudy
4:55 PM 44.6 °F 40.2 °F 21.2 °F 39% 30.00 in 10.0 mi West 8.1 mph 23.0 mph N/A   Clear
5:15 PM 44.6 °F 39.2 °F 21.2 °F 39% 30.00 in 10.0 mi West 10.4 mph 19.6 mph N/A   Clear
5:35 PM 42.8 °F 39.3 °F 21.2 °F 42% 30.01 in 10.0 mi West 5.8 mph 19.6 mph N/A   Clear
5:55 PM 42.8 °F 38.6 °F 21.2 °F 42% 30.01 in 10.0 mi West 6.9 mph - N/A   Partly Cloudy
6:15 PM 42.8 °F 38.0 °F 21.2 °F 42% 30.01 in 10.0 mi West 8.1 mph - N/A   Scattered Clouds
6:35 PM 42.8 °F 38.6 °F 21.2 °F 42% 30.00 in 10.0 mi WNW 6.9 mph - N/A   Partly Cloudy
6:55 PM 41.0 °F 34.3 °F 21.2 °F 45% 30.01 in 10.0 mi WSW 11.5 mph 18.4 mph N/A   Clear
7:15 PM 41.0 °F 34.3 °F 21.2 °F 45% 30.01 in 10.0 mi WNW 11.5 mph - N/A   Partly Cloudy
7:35 PM 41.0 °F 37.1 °F 21.2 °F 45% 30.01 in 10.0 mi WNW 5.8 mph - N/A   Partly Cloudy
7:55 PM 41.0 °F 37.1 °F 21.2 °F 45% 30.02 in 10.0 mi NW 5.8 mph - N/A   Scattered Clouds
8:15 PM 39.2 °F 35.0 °F 21.2 °F 49% 30.02 in 10.0 mi NW 5.8 mph 16.1 mph N/A   Mostly Cloudy
8:55 PM 39.2 °F 35.9 °F 21.2 °F 49% 30.02 in 10.0 mi NNW 4.6 mph - N/A   Mostly Cloudy
9:35 PM 41.0 °F 34.7 °F 24.8 °F 53% 30.02 in 10.0 mi West 10.4 mph 19.6 mph N/A   Overcast
9:55 PM 41.0 °F 33.9 °F 26.6 °F 57% 30.03 in 10.0 mi WSW 12.7 mph 18.4 mph N/A   Overcast
10:15 PM 41.0 °F 33.9 °F 26.6 °F 57% 30.03 in 10.0 mi WSW 12.7 mph 21.9 mph N/A   Overcast
10:35 PM 41.0 °F 35.2 °F 26.6 °F 57% 30.03 in 10.0 mi WSW 9.2 mph - N/A   Overcast
10:55 PM 41.0 °F 35.8 °F 26.6 °F 57% 30.02 in 10.0 mi WSW 8.1 mph - N/A   Overcast
11:55 PM 39.2 °F 31.6 °F 26.6 °F 61% 30.00 in 10.0 mi SSW 12.7 mph - N/A   Overcast